TimeEDT,TemperatureF,Dew PointF,Humidity,Sea Level PressureIn,VisibilityMPH,Wind Direction,Wind SpeedMPH,Gust SpeedMPH,PrecipitationIn,Events,Conditions,WindDirDegrees,DateUTC
12:53 AM,55.0,39.9,57,29.96,10.0,ESE,3.5,-,N/A,,Clear,110,2013-03-22 04:53:00
1:53 AM,53.1,39.9,61,29.94,10.0,Calm,Calm,-,N/A,,Clear,0,2013-03-22 05:53:00
2:53 AM,51.1,39.9,66,29.93,10.0,NE,5.8,-,N/A,,Clear,40,2013-03-22 06:53:00
3:53 AM,50.0,39.0,66,29.91,10.0,Calm,Calm,-,N/A,,Clear,0,2013-03-22 07:53:00
4:53 AM,52.0,37.9,59,29.91,10.0,ENE,4.6,-,N/A,,Partly Cloudy,70,2013-03-22 08:53:00
5:53 AM,53.1,37.0,55,29.92,10.0,ENE,5.8,-,N/A,,Clear,70,2013-03-22 09:53:00
6:53 AM,51.1,37.9,61,29.95,10.0,NE,3.5,-,N/A,,Clear,40,2013-03-22 10:53:00
7:53 AM,52.0,39.9,63,29.96,10.0,Calm,Calm,-,N/A,,Clear,0,2013-03-22 11:53:00
8:53 AM,55.9,39.9,55,29.98,10.0,East,4.6,-,N/A,,Clear,90,2013-03-22 12:53:00
9:53 AM,63.0,42.1,46,29.99,10.0,ESE,8.1,-,N/A,,Partly Cloudy,110,2013-03-22 13:53:00
10:53 AM,70.0,51.1,51,29.99,10.0,SE,6.9,-,N/A,,Mostly Cloudy,140,2013-03-22 14:53:00
11:53 AM,73.0,55.9,55,30.00,10.0,Calm,Calm,-,N/A,,Overcast,0,2013-03-22 15:53:00
12:53 PM,75.0,60.1,60,29.99,10.0,South,6.9,-,N/A,,Mostly Cloudy,180,2013-03-22 16:53:00
1:53 PM,78.1,63.0,60,29.96,10.0,South,8.1,-,N/A,,Overcast,190,2013-03-22 17:53:00
2:53 PM,79.0,66.0,64,29.93,10.0,SSW,13.8,20.7,N/A,,Mostly Cloudy,200,2013-03-22 18:53:00
3:53 PM,80.1,64.9,60,29.91,10.0,South,12.7,-,N/A,,Mostly Cloudy,190,2013-03-22 19:53:00
4:53 PM,80.1,64.9,60,29.91,10.0,South,9.2,-,N/A,,Mostly Cloudy,190,2013-03-22 20:53:00
5:53 PM,78.1,66.9,68,29.91,10.0,SSW,11.5,19.6,N/A,,Mostly Cloudy,200,2013-03-22 21:53:00
6:53 PM,77.0,68.0,74,29.92,10.0,South,9.2,17.3,N/A,,Mostly Cloudy,190,2013-03-22 22:53:00
7:53 PM,75.0,69.1,82,29.93,10.0,SSW,4.6,-,N/A,,Overcast,200,2013-03-22 23:53:00
8:53 PM,75.0,69.1,82,29.95,10.0,South,4.6,-,N/A,,Mostly Cloudy,190,2013-03-23 00:53:00
9:53 PM,73.9,69.1,85,29.94,10.0,South,4.6,-,N/A,,Clear,190,2013-03-23 01:53:00
10:53 PM,72.0,69.1,91,29.96,10.0,SE,4.6,-,N/A,,Clear,130,2013-03-23 02:53:00
11:53 PM,73.0,69.1,87,29.96,10.0,SSE,6.9,-,N/A,,Overcast,160,2013-03-23 03:53:00